User: anonymous   Login
Location: Huntington Beach
(33.6600°N, 117.9980°W)
Time: 00:55:21
(UTC-07:00)
Language:

SL-16 R/B - Orbit

View from above orbital plane
View from above orbital plane
View from above satellite
View from above satellite

Ground track
Ground track

The orbit data is extracted from the following two-line orbital elements,

1 28353U 04021B   15243.80287183 -.00000164  00000-0 -61219-4 0  9996
2 28353  71.0035  12.8644 0002832 131.2445 228.8921 14.14164167579502
Epoch (UTC): 31 August 2015 19:16:08
Eccentricity: 0.0002832
inclination: 71.0035°
perigee height: 843 km
apogee height: 847 km
right ascension of ascending node: 12.8644°
argument of perigee: 131.2445°
revolutions per day: 14.14164167
mean anomaly at epoch: 228.8921°
orbit number at epoch: 57950

The dashed part of the orbit path shows where the satellite is in the earth's shadow,  

DLR